DW6536 Weather Reports


time (UTC)temp
C
wind
direction
speed
KPH
gust
KPH
rain 1hr
cm
rain 24hr
cm
rain mn
cm
humidity
%
barometer
mb
20260508043012 15 76 0.0 0.0 0.00 0.00 0.00 83 1013.5
20260508041512 15 99 0.0 0.0 0.00 0.00 0.00 83 1013.6
20260508040010 15 62 0.0 0.0 0.00 0.00 0.00 81 1014.0
20260508034510 15 62 0.0 0.0 0.00 0.00 0.00 81 1014.5
20260508033009 15 62 0.0 0.0 0.00 0.00 0.00 80 1014.4
20260508031509 15 62 0.0 0.0 0.00 0.00 0.00 80 1014.9
20260508030008 15 62 0.0 0.0 0.00 0.00 0.00 78 1014.0
20260508024507 16 37 0.0 0.0 0.00 0.00 0.00 77 1013.6
20260508023008 16 64 0.0 0.0 0.00 0.00 0.00 77 1013.2
20260508021507 16 64 0.0 0.0 0.00 0.00 0.00 76 1012.3
20260508020006 16 99 0.0 0.0 0.00 0.00 0.00 75 1012.6
20260508014508 16 44 1.6 0.0 0.00 0.00 0.00 75 1012.6
20260508013004 16 132 0.0 0.0 0.00 0.00 0.00 74 1012.5
20260508011504 17 88 1.6 0.0 0.00 0.00 0.00 72 1012.3
20260508010002 17 56 1.6 0.0 0.00 0.00 0.00 71 1012.9
20260508004500 17 30 1.6 0.0 0.00 0.00 0.00 70 1013.2
20260508003107 17 116 1.6 0.0 0.00 0.00 0.00 69 1013.0
20260508001604 17 102 1.6 0.0 0.00 0.00 0.00 69 1013.6
20260508000059 18 50 1.6 0.0 0.00 0.00 0.00 68 1014.0
20260507234559 18 19 0.0 0.0 0.00 0.00 0.00 68 1014.2
20260507233100 18 52 1.6 0.0 0.00 0.00 0.00 66 1014.1
20260507231559 18 51 0.0 0.0 0.00 0.00 0.00 69 1014.0
20260507230104 18 36 1.6 0.0 0.00 0.00 0.00 67 1014.1
20260507224600 18 358 1.6 0.0 0.00 0.00 0.00 68 1014.0
20260507223057 18 45 1.6 0.0 0.00 0.00 0.00 67 1014.3
20260507221555 18 48 1.6 0.0 0.00 0.00 0.00 67 1014.3
20260507220055 18 7 3.2 0.0 0.00 0.00 0.00 68 1014.6
20260507214605 18 41 3.2 0.0 0.00 0.00 0.00 69 1014.8
20260507213056 18 1 3.2 0.0 0.00 0.00 0.00 67 1014.9
20260507211553 18 14 1.6 0.0 0.00 0.00 0.00 71 1014.6
20260507210057 17 23 1.6 0.0 0.00 0.00 0.00 70 1014.8
20260507204548 17 44 1.6 0.0 0.00 0.00 0.00 71 1015.0
20260507203103 17 39 1.6 0.0 0.00 0.00 0.00 69 1015.2
20260507201556 17 31 3.2 0.0 0.00 0.00 0.00 70 1015.7
20260507194543 17 49 1.6 0.0 0.00 0.00 0.00 71 1016.0
20260507193047 17 36 3.2 0.0 0.00 0.00 0.00 71 1016.1
20260507191541 17 88 3.2 0.0 0.00 0.00 0.00 72 1016.1
20260507190041 16 52 3.2 0.0 0.00 0.00 0.00 71 1016.2
20260507184546 16 74 3.2 0.0 0.00 0.00 0.00 73 1015.7
20260507183041 16 64 3.2 0.0 0.00 0.00 0.00 72 1016.2
20260507181538 16 62 3.2 0.0 0.00 0.00 0.00 72 1016.2
20260507180040 17 85 3.2 0.0 0.00 0.00 0.00 73 1016.3
20260507174539 17 29 3.2 0.0 0.00 0.00 0.00 73 1016.6
20260507173134 16 14 4.8 0.0 0.00 0.00 0.00 78 1016.9
20260507171551 15 15 1.6 0.0 0.00 0.00 0.00 80 1016.5
20260507170059 15 52 3.2 0.0 0.00 0.00 0.00 80 1015.9
20260507164559 14 338 3.2 0.0 0.00 0.00 0.00 82 1017.1
20260507163049 14 45 3.2 0.0 0.00 0.00 0.00 82 1017.0
20260507161548 14 26 1.6 0.0 0.00 0.00 0.00 79 1018.2
20260507160046 14 34 3.2 0.0 0.00 0.00 0.00 80 1017.6
20260507154551 14 49 3.2 0.0 0.00 0.00 0.00 81 1017.5
20260507153045 14 358 3.2 0.0 0.00 0.00 0.00 82 1017.6
20260507151545 14 49 1.6 0.0 0.00 0.00 0.00 82 1017.3
20260507150043 14 49 3.2 0.0 0.00 0.00 0.00 83 1017.5
20260507144543 14 4 3.2 0.0 0.00 0.00 0.00 83 1017.8
20260507143040 13 16 3.2 0.0 0.00 0.00 0.00 85 1017.0
20260507141542 13 358 3.2 0.0 0.00 0.00 0.00 86 1017.0
20260507140038 13 349 4.8 0.0 0.00 0.00 0.00 86 1017.0
20260507134539 13 23 1.6 0.0 0.00 0.00 0.00 87 1016.6
20260507133052 13 13 4.8 0.0 0.00 0.00 0.00 87 1016.5
20260507131545 13 343 4.8 0.0 0.00 0.00 0.00 87 1016.5
20260507130045 13 12 4.8 0.0 0.00 0.00 0.00 87 1016.6
20260507124533 13 18 4.8 0.0 0.00 0.00 0.00 87 1016.3
20260507123032 13 343 3.2 0.0 0.00 0.00 0.00 87 1016.5
20260507121531 13 294 4.8 0.0 0.00 0.00 0.00 87 1016.4
20260507120028 13 29 3.2 0.0 0.00 0.00 0.00 87 1015.5
20260507114526 13 6 3.2 0.0 0.00 0.00 0.00 87 1015.2
20260507113025 13 47 3.2 0.0 0.00 0.00 0.00 86 1015.4
20260507111525 13 31 4.8 0.0 0.00 0.00 0.00 86 1015.6
20260507110024 13 353 3.2 0.0 0.00 0.00 0.00 86 1015.4
20260507104522 13 33 4.8 0.0 0.00 0.00 0.00 85 1015.4
20260507103021 13 356 4.8 0.0 0.00 0.00 0.00 86 1015.2
20260507101521 13 24 4.8 0.0 0.00 0.00 0.00 86 1015.0
20260507100019 14 54 3.2 0.0 0.00 0.00 0.00 85 1014.9
20260507094518 14 69 3.2 0.0 0.00 0.00 0.00 85 1015.2
20260507093016 14 37 3.2 0.0 0.00 0.00 0.00 85 1014.7
20260507091520 14 17 1.6 0.0 0.00 0.00 0.00 85 1014.8
20260507090021 14 12 1.6 0.0 0.00 0.00 0.00 85 1014.1
20260507084512 14 58 1.6 0.0 0.00 0.00 0.00 84 1014.0
20260507083011 14 35 1.6 0.0 0.00 0.00 0.00 84 1013.8
20260507081508 14 40 1.6 0.0 0.00 0.00 0.00 84 1014.3
20260507080006 15 37 1.6 0.0 0.00 0.00 0.00 83 1013.8
20260507074505 15 53 3.2 0.0 0.00 0.00 0.00 83 1013.4
20260507073003 15 112 1.6 0.0 0.00 0.00 0.00 82 1013.6
20260507071502 15 74 3.2 0.0 0.00 0.00 0.00 82 1013.3
20260507070002 15 46 3.2 0.0 0.00 0.00 0.00 81 1013.4
20260507064603 15 25 1.6 0.0 0.00 0.00 0.00 81 1013.4
20260507063106 15 30 1.6 0.0 0.00 0.00 0.00 80 1013.2
20260507061558 15 36 3.2 0.0 0.00 0.00 0.00 80 1013.3
20260507060057 15 44 1.6 0.0 0.00 0.00 0.00 80 1013.7
20260507054554 15 62 3.2 0.0 0.00 0.00 0.00 80 1013.4
20260507053054 15 58 3.2 0.0 0.00 0.00 0.00 81 1013.1
20260507051554 15 26 3.2 0.0 0.00 0.00 0.00 80 1013.2
20260507050051 15 53 3.2 0.0 0.00 0.00 0.00 80 1013.4
20260507044550 16 31 3.2 0.0 0.00 0.00 0.00 80 1013.1